Regional Weather Roundup
Issued by NWS San Angelo, TX

Home | Current Version | Previous Version | Text Only | Print | Product List | Glossary On
Versions: 1 2 3 4 5 6 7 8 9 10 11 12 13 14 15 16 17 18 19 20 21 22 23 24 25 26 27 28 29 30 31 32 33 34 35 36 37 38 39 40 41 42 43 44 45 46 47 48 49 50
000
ASUS44 KSJT 111610
RWRSJT
WEST CENTRAL TEXAS REGIONAL WEATHER ROUNDUP
NATIONAL WEATHER SERVICE SAN ANGELO TX
1000 AM CST MON DEC 11 2017

NOTE: "FAIR" INDICATES FEW OR NO CLOUDS BELOW 12,000 FEET WITH NO
SIGNIFICANT WEATHER AND/OR OBSTRUCTIONS TO VISIBILITY.

TXZ049-054-064>066-071>073-076>078-098-099-113-114-127-128-139-140-
154-155-168>170-111700
...LOCATIONS ACROSS WEST CENTRAL TEXAS...

CITY           SKY/WX    TMP DP  RH WIND       PRES   REMARKS
SAN ANGELO     SUNNY     45  28  51 W3        30.34S
ABILENE        SUNNY     55  24  30 SW5       30.30S
DYESS AFB      SUNNY     60  24  25 SW7       30.30S
JUNCTION       CLOUDY    38  31  76 CALM      30.35S
SWEETWATER     SUNNY     53  25  33 W10       30.33S
BROWNWOOD      NOT AVBL
COLEMAN        SUNNY     62  23  22 W5        30.31S
SONORA         CLOUDY    39  30  70 CALM      30.40S
OZONA          FAIR      41  30  65 CALM      30.38S
BRADY          NOT AVBL
$$

TEXAS PANHANDLE/OKLAHOMA PANHANDLE

CITY           SKY/WX    TMP DP  RH WIND       PRES   REMARKS
AMARILLO       SUNNY     41   9  26 NW13G21   30.30R WCI  34
BORGER         SUNNY     41   9  26 SW8       30.29S WCI  36
CANADIAN       SUNNY     47   9  21 NW10      30.26S
DALHART        SUNNY     53   5  14 N13       30.30R
DUMAS          SUNNY     46   8  21 N13       30.29S
GUYMON         NOT AVBL
HEREFORD       SUNNY     43  14  30 MISG      30.31S
PAMPA          SUNNY     44   9  24 W10       30.28S WCI  38
PERRYTON       SUNNY     49  10  21 NW15      30.26R
$$

SOUTHERN PANHANDLE/SOUTH PLAINS/ROLLING PLAINS

CITY           SKY/WX    TMP DP  RH WIND       PRES   REMARKS
LUBBOCK        MOSUNNY   49  11  21 W12       30.28F
SNYDER         SUNNY     43  27  53 SW5       30.32S
CHILDRESS      SUNNY     54  16  22 NW14      30.25S
SEMINOLE       CLOUDY    44  19  36 NW7       30.34R HAZE    WCI  40
$$

PERMIAN BASIN

CITY           SKY/WX    TMP DP  RH WIND       PRES   REMARKS
MIDLAND        CLOUDY    54  31  41 W9        30.33S
ODESSA         CLOUDY    48  33  56 W5        30.34R
WINK           MOSUNNY   39  33  79 CALM      30.34S
$$

FAR WEST/SOUTHWEST MOUNTAINS/TRANS PECOS

CITY           SKY/WX    TMP DP  RH WIND       PRES   REMARKS
ALPINE         PTSUNNY   51  24  35 W7        30.44S
DRYDEN           N/A     52  34  50 W12       30.35S
EL PASO        PTSUNNY   40  16  37 N9        30.40F WCI  34
FORT STOCKTON  MOSUNNY   49  29  46 SW10      30.36R
GUADALUPE PASS CLOUDY    38  25  59 SW18      30.40R WCI  28
MARFA          CLOUDY    39  29  67 SE5       30.43S WCI  36
PECOS          MOSUNNY   39  33  78 CALM      30.37S
$$

DALLAS/FORT WORTH METROPLEX

CITY           SKY/WX    TMP DP  RH WIND       PRES   REMARKS
DFW AIRPORT    MOSUNNY   59  23  25 SW8       30.24S
FTW MEACHAM    SUNNY     61  22  22 W8        30.25F
DAL-EXECUTIVE  SUNNY     61  22  22 W13       30.24F
GRAND PRAIRIE  SUNNY     57  21  24 SW7       30.28S
ADDISON        SUNNY     55  19  24 SW7       30.25F
MESQUITE       SUNNY     52  30  43 CALM      30.26F
LANCASTER      SUNNY     62  21  20 W8        30.27S
$$

NORTH CENTRAL TEXAS

CITY           SKY/WX    TMP DP  RH WIND       PRES   REMARKS
SHRMAN/DENISON SUNNY     54  24  31 SW9       30.23R
GAINESVILLE    SUNNY     61  16  17 W9        30.23S
BRIDGEPORT     SUNNY     59  21  23 W8        30.26F
DENTON         SUNNY     60  24  25 W8        30.23F
WAXAHACHIE     SUNNY     61  25  25 W9G20     30.28S
GRANBURY       SUNNY     50  24  36 CALM      30.30S
$$

WESTERN NORTH TEXAS

CITY           SKY/WX    TMP DP  RH WIND       PRES   REMARKS
WICHITA FALLS  MOSUNNY   53  17  24 W13       30.23R
VERNON         SUNNY     52   9  17 NW9       30.24S
BRECKENRIDGE   SUNNY     57  20  23 W5        30.29S
COMANCHE       SUNNY     64  27  24 W7        30.31S
$$

CENTRAL AND SOUTH CENTRAL TEXAS

CITY           SKY/WX    TMP DP  RH WIND       PRES   REMARKS
AUSTIN/BERGSTM PTSUNNY   60  33  36 NW8       30.32R
WACO           SUNNY     53  29  39 SW3       30.29S
HILLSBORO      SUNNY     57  26  31 W3        30.28S
TEMPLE         SUNNY     56  34  43 W5        30.31S
KILLEEN-GRAY   SUNNY     57  26  31 SW7       30.30S
FORT HOOD      SUNNY     56  28  35 W6        30.27S
GEORGETOWN     MOSUNNY   55  32  41 W8        30.33S
LAGO VISTA     FAIR      55  35  48 W9        30.33S
SAN MARCOS     SUNNY     61  42  49 NE3       30.33S
NEW BRAUNFELS  SUNNY     60  37  42 NW5       30.32S
RANDOLPH AFB   SUNNY     58  36  44 NW5       30.33S
SAN ANTONIO    MOSUNNY   59  37  44 CALM      30.34S
STINSON        CLOUDY    54  39  57 SW5       30.33S
PLEASANTON     NOT AVBL
LA GRANGE      SUNNY     60  39  45 NW5       30.31R
GIDDINGS       SUNNY     58  35  40 NW5       30.33R
$$

EAST TEXAS

CITY           SKY/WX    TMP DP  RH WIND       PRES   REMARKS
PARIS          SUNNY     55  26  32 SW9       30.22F
CLARKSVILLE    NOT AVBL
TYLER          SUNNY     54  28  36 SW8       30.26S
LONGVIEW       SUNNY     56  36  47 VRB5      30.25S
PALESTINE      SUNNY     53  33  47 SW3       30.30S
NACOGDOCHES    SUNNY     52  36  54 SW3       30.28F
$$

TEXAS HILL COUNTRY AND EDWARDS PLATEAU

CITY           SKY/WX    TMP DP  RH WIND       PRES   REMARKS
LLANO          CLOUDY    46  36  66 SW6       30.38S
HORSESHOE BAY  FAIR      57  35  42 CALM      30.34S
KERRVILLE      CLOUDY    51  35  55 NW5       30.35R
FREDERICKSBRG  CLOUDY    51  35  53 W3        30.35R
ROCKSPRINGS    NOT AVBL
HONDO          SUNNY     58  41  53 N3        30.35S
UVALDE         SUNNY     48  38  68 CALM      30.37S
DEL RIO        MOSUNNY   52  43  71 W6        30.37S
$$

SOUTHEAST TEXAS

CITY           SKY/WX    TMP DP  RH WIND       PRES   REMARKS
COLLEGE STN    CLOUDY    52  39  61 W5        30.32R
CALDWELL       CLOUDY    60  38  43 NW6       30.32S
CROCKETT         N/A     52  36  54 CALM      30.31F
BRENHAM        MOSUNNY   58  41  54 CALM      30.33R
HUNTSVILLE     CLOUDY    54  36  50 SW6       30.29F
CONROE         CLOUDY    50  43  77 CALM      30.31S
HOUSTON BUSH   MOSUNNY   56  39  53 NW6       30.32S
HOUSTON HOBBY  MOSUNNY   56  40  55 W5        30.32R
PERLAND        SUNNY     58  39  49 NW3       30.34R
WHARTON        SUNNY     54  39  57 CALM      30.35R
$$

THE UPPER TEXAS COAST

CITY           SKY/WX    TMP DP  RH WIND       PRES   REMARKS
ORANGE         SUNNY     57  43  58 W6        30.32F
PORT ARTHUR    MOSUNNY   59  43  55 W7        30.30F
GALVESTON      SUNNY     58  42  55 W5        30.33S
ANGLETON       SUNNY     60  42  51 CALM      30.33S
BAY CITY       SUNNY     56  45  66 SW3       30.34R
$$

TEXAS COASTAL BEND, RIO GRANDE PLAINS DEEP SOUTH TEXAS

CITY           SKY/WX    TMP DP  RH WIND       PRES   REMARKS
VICTORIA       MOSUNNY   60  39  45 W6        30.35S
BEEVILLE       FAIR      57  41  53 W5        30.37R
ROCKPORT       SUNNY     56  39  53 W5        30.37F
PORT ARANSAS   NOT AVBL
PORT LAVACA    SUNNY     57  45  65 SW7       30.36S
CORPUS CHRISTI PTSUNNY   56  43  61 NW5       30.37F
KINGSVILLE NAS PTSUNNY   61  43  51 SW6       30.38R
COTULLA        MOSUNNY   51  42  71 CALM      30.37F
LAREDO           N/A     54  42  64 MISG        N/A
BROWNSVILLE    SUNNY     61  49  64 W5        30.39R
PORT ISABEL    SUNNY     61  50  67 SW7       30.38S
HEBBRONVILLE   SUNNY     61  37  40 SW5       30.38S
MCALLEN        PTSUNNY   57  44  62 CALM      30.38F
WESLACO        PTSUNNY   58  47  65 CALM      30.38S
FALFURRIAS     NOT AVBL
EDINBURG       NOT AVBL
$$



USA.gov is the U.S. government's official web portal to all federal, state and local government web resources and services.